owner,sensor,date,latitude,longitude,vertical_datum,sea_water_practical_salinity,qcFlag 
TABS,ioos:station:wmo:42049:1,2016-09-01T00:00:00Z,28.3507,-96.0058,2.0,34.4065,11111222 
TABS,ioos:station:wmo:42049:1,2016-09-01T00:30:00Z,28.3507,-96.0058,2.0,34.4735,11111222 
TABS,ioos:station:wmo:42049:1,2016-09-01T01:00:00Z,28.3507,-96.0058,2.0,34.4581,11111222 
TABS,ioos:station:wmo:42049:1,2016-09-01T02:30:00Z,28.3507,-96.0058,2.0,34.3229,11111222 
TABS,ioos:station:wmo:42049:1,2016-09-01T03:00:00Z,28.3507,-96.0058,2.0,34.2391,11111222 
TABS,ioos:station:wmo:42049:1,2016-09-01T03:30:00Z,28.3507,-96.0058,2.0,34.2093,11111222 
TABS,ioos:station:wmo:42049:1,2016-09-01T04:00:00Z,28.3507,-96.0058,2.0,34.2365,11111222 
TABS,ioos:station:wmo:42049:1,2016-09-01T04:30:00Z,28.3507,-96.0058,2.0,34.2543,11111222 
TABS,ioos:station:wmo:42049:1,2016-09-01T05:00:00Z,28.3507,-96.0058,2.0,34.2918,11111222 
TABS,ioos:station:wmo:42049:1,2016-09-01T05:30:00Z,28.3507,-96.0058,2.0,34.3471,11111222 
TABS,ioos:station:wmo:42049:1,2016-09-01T06:00:00Z,28.3507,-96.0058,2.0,34.4158,11111222 
TABS,ioos:station:wmo:42049:1,2016-09-01T06:30:00Z,28.3507,-96.0058,2.0,34.43,11111222 
TABS,ioos:station:wmo:42049:1,2016-09-01T07:00:00Z,28.3507,-96.0058,2.0,34.4341,11111222 
TABS,ioos:station:wmo:42049:1,2016-09-01T07:30:00Z,28.3507,-96.0058,2.0,34.4217,11111222 
TABS,ioos:station:wmo:42049:1,2016-09-01T08:00:00Z,28.3507,-96.0058,2.0,34.401,11111222 
TABS,ioos:station:wmo:42049:1,2016-09-01T08:30:00Z,28.3507,-96.0058,2.0,34.3807,11111222 
TABS,ioos:station:wmo:42049:1,2016-09-01T09:00:00Z,28.3507,-96.0058,2.0,34.3902,11111222 
TABS,ioos:station:wmo:42049:1,2016-09-01T09:30:00Z,28.3507,-96.0058,2.0,34.3821,11111222 
TABS,ioos:station:wmo:42049:1,2016-09-01T10:00:00Z,28.3507,-96.0058,2.0,34.3769,11111222 
TABS,ioos:station:wmo:42049:1,2016-09-01T10:30:00Z,28.3507,-96.0058,2.0,34.0787,11111222 
TABS,ioos:station:wmo:42049:1,2016-09-01T11:00:00Z,28.3507,-96.0058,2.0,33.9047,11111222 
TABS,ioos:station:wmo:42049:1,2016-09-01T11:30:00Z,28.3507,-96.0058,2.0,33.8399,11111222 
TABS,ioos:station:wmo:42049:1,2016-09-01T12:00:00Z,28.3507,-96.0058,2.0,33.8064,11111222 
TABS,ioos:station:wmo:42049:1,2016-09-01T12:30:00Z,28.3507,-96.0058,2.0,33.7524,11111222 
TABS,ioos:station:wmo:42049:1,2016-09-01T13:00:00Z,28.3507,-96.0058,2.0,33.5923,11111222 
TABS,ioos:station:wmo:42049:1,2016-09-01T13:30:00Z,28.3507,-96.0058,2.0,33.5454,11111222 
TABS,ioos:station:wmo:42049:1,2016-09-01T14:00:00Z,28.3507,-96.0058,2.0,33.5323,11111222 
TABS,ioos:station:wmo:42049:1,2016-09-01T14:30:00Z,28.3507,-96.0058,2.0,33.4843,11111222 
TABS,ioos:station:wmo:42049:1,2016-09-01T15:00:00Z,28.3507,-96.0058,2.0,33.4919,11111222 
TABS,ioos:station:wmo:42049:1,2016-09-01T15:30:00Z,28.3507,-96.0058,2.0,33.5259,11111222 
TABS,ioos:station:wmo:42049:1,2016-09-01T16:00:00Z,28.3507,-96.0058,2.0,33.5055,11111222 
TABS,ioos:station:wmo:42049:1,2016-09-01T16:30:00Z,28.3507,-96.0058,2.0,33.5273,11111222 
TABS,ioos:station:wmo:42049:1,2016-09-01T17:00:00Z,28.3507,-96.0058,2.0,33.4936,11111222 
TABS,ioos:station:wmo:42049:1,2016-09-01T17:30:00Z,28.3507,-96.0058,2.0,33.4096,11111222 
TABS,ioos:station:wmo:42049:1,2016-09-01T18:00:00Z,28.3507,-96.0058,2.0,33.4111,11111222 
TABS,ioos:station:wmo:42049:1,2016-09-01T18:30:00Z,28.3507,-96.0058,2.0,33.3657,11111222 
TABS,ioos:station:wmo:42049:1,2016-09-01T19:00:00Z,28.3507,-96.0058,2.0,33.3462,11111222 
TABS,ioos:station:wmo:42049:1,2016-09-01T19:30:00Z,28.3507,-96.0058,2.0,33.3311,11111222 
TABS,ioos:station:wmo:42049:1,2016-09-01T20:00:00Z,28.3507,-96.0058,2.0,33.3273,11111222 
TABS,ioos:station:wmo:42049:1,2016-09-01T20:30:00Z,28.3507,-96.0058,2.0,33.3534,11111222 
TABS,ioos:station:wmo:42049:1,2016-09-01T21:00:00Z,28.3507,-96.0058,2.0,33.4208,11111222 
TABS,ioos:station:wmo:42049:1,2016-09-01T21:30:00Z,28.3507,-96.0058,2.0,33.471,11111222 
TABS,ioos:station:wmo:42049:1,2016-09-01T22:00:00Z,28.3507,-96.0058,2.0,33.4136,11111222 
TABS,ioos:station:wmo:42049:1,2016-09-01T22:30:00Z,28.3507,-96.0058,2.0,33.4054,11111222 
TABS,ioos:station:wmo:42049:1,2016-09-01T23:00:00Z,28.3507,-96.0058,2.0,33.3693,11111222 
TABS,ioos:station:wmo:42049:1,2016-09-01T23:30:00Z,28.3507,-96.0058,2.0,33.4104,11111222 
TABS,ioos:station:wmo:42049:1,2016-09-02T00:00:00Z,28.3507,-96.0058,2.0,33.4046,11111222 
TABS,ioos:station:wmo:42049:1,2016-09-02T00:30:00Z,28.3507,-96.0058,2.0,33.4012,11111222 
TABS,ioos:station:wmo:42049:1,2016-09-02T01:00:00Z,28.3507,-96.0058,2.0,33.3616,11111222 
TABS,ioos:station:wmo:42049:1,2016-09-02T01:30:00Z,28.3507,-96.0058,2.0,33.3686,11111222 
TABS,ioos:station:wmo:42049:1,2016-09-02T02:00:00Z,28.3507,-96.0058,2.0,33.3671,11111222 
TABS,ioos:station:wmo:42049:1,2016-09-02T02:30:00Z,28.3507,-96.0058,2.0,33.4166,11111222 
TABS,ioos:station:wmo:42049:1,2016-09-02T03:00:00Z,28.3507,-96.0058,2.0,33.3561,11111222 
TABS,ioos:station:wmo:42049:1,2016-09-02T03:30:00Z,28.3507,-96.0058,2.0,33.3673,11111222 
TABS,ioos:station:wmo:42049:1,2016-09-02T04:00:00Z,28.3507,-96.0058,2.0,33.4361,11111222 
TABS,ioos:station:wmo:42049:1,2016-09-02T04:30:00Z,28.3507,-96.0058,2.0,33.4485,11111222 
TABS,ioos:station:wmo:42049:1,2016-09-02T05:00:00Z,28.3507,-96.0058,2.0,33.4152,11111222 
TABS,ioos:station:wmo:42049:1,2016-09-02T05:30:00Z,28.3507,-96.0058,2.0,33.4403,11111222 
TABS,ioos:station:wmo:42049:1,2016-09-02T06:00:00Z,28.3507,-96.0058,2.0,33.4719,11111222 
TABS,ioos:station:wmo:42049:1,2016-09-02T06:30:00Z,28.3507,-96.0058,2.0,33.4669,11111222 
TABS,ioos:station:wmo:42049:1,2016-09-02T07:00:00Z,28.3507,-96.0058,2.0,33.4611,11111222 
TABS,ioos:station:wmo:42049:1,2016-09-02T07:30:00Z,28.3507,-96.0058,2.0,33.4568,11111222 
TABS,ioos:station:wmo:42049:1,2016-09-02T08:00:00Z,28.3507,-96.0058,2.0,33.4731,11111222 
TABS,ioos:station:wmo:42049:1,2016-09-02T08:30:00Z,28.3507,-96.0058,2.0,33.4947,11111222 
TABS,ioos:station:wmo:42049:1,2016-09-02T09:00:00Z,28.3507,-96.0058,2.0,33.5402,11111222 
TABS,ioos:station:wmo:42049:1,2016-09-02T09:30:00Z,28.3507,-96.0058,2.0,33.5106,11111222 
TABS,ioos:station:wmo:42049:1,2016-09-02T10:00:00Z,28.3507,-96.0058,2.0,33.5833,11111222 
TABS,ioos:station:wmo:42049:1,2016-09-02T10:30:00Z,28.3507,-96.0058,2.0,33.5739,11111222 
TABS,ioos:station:wmo:42049:1,2016-09-02T11:00:00Z,28.3507,-96.0058,2.0,33.6298,11111222 
TABS,ioos:station:wmo:42049:1,2016-09-02T11:30:00Z,28.3507,-96.0058,2.0,33.5964,11111222 
TABS,ioos:station:wmo:42049:1,2016-09-02T12:00:00Z,28.3507,-96.0058,2.0,33.5713,11111222 
TABS,ioos:station:wmo:42049:1,2016-09-02T12:30:00Z,28.3507,-96.0058,2.0,33.5891,11111222 
TABS,ioos:station:wmo:42049:1,2016-09-02T13:00:00Z,28.3507,-96.0058,2.0,33.6038,11111222 
TABS,ioos:station:wmo:42049:1,2016-09-02T13:30:00Z,28.3507,-96.0058,2.0,33.7312,11111222 
TABS,ioos:station:wmo:42049:1,2016-09-02T14:00:00Z,28.3507,-96.0058,2.0,33.8037,11111222 
TABS,ioos:station:wmo:42049:1,2016-09-02T14:30:00Z,28.3507,-96.0058,2.0,33.8589,11111222 
TABS,ioos:station:wmo:42049:1,2016-09-02T15:00:00Z,28.3507,-96.0058,2.0,33.9504,11111222 
TABS,ioos:station:wmo:42049:1,2016-09-02T15:30:00Z,28.3507,-96.0058,2.0,34.0007,11111222 
TABS,ioos:station:wmo:42049:1,2016-09-02T16:00:00Z,28.3507,-96.0058,2.0,34.009,11111222 
TABS,ioos:station:wmo:42049:1,2016-09-02T16:30:00Z,28.3507,-96.0058,2.0,34.0098,11111222 
TABS,ioos:station:wmo:42049:1,2016-09-02T17:00:00Z,28.3507,-96.0058,2.0,34.0236,11111222 
TABS,ioos:station:wmo:42049:1,2016-09-02T17:30:00Z,28.3507,-96.0058,2.0,34.0962,11111222 
TABS,ioos:station:wmo:42049:1,2016-09-02T18:00:00Z,28.3507,-96.0058,2.0,34.1534,11111222 
TABS,ioos:station:wmo:42049:1,2016-09-02T18:30:00Z,28.3507,-96.0058,2.0,34.1858,11111222 
TABS,ioos:station:wmo:42049:1,2016-09-02T19:00:00Z,28.3507,-96.0058,2.0,34.2777,11111222 
TABS,ioos:station:wmo:42049:1,2016-09-02T19:30:00Z,28.3507,-96.0058,2.0,34.3747,11111222 
TABS,ioos:station:wmo:42049:1,2016-09-02T20:00:00Z,28.3507,-96.0058,2.0,34.3506,11111222 
TABS,ioos:station:wmo:42049:1,2016-09-02T20:30:00Z,28.3507,-96.0058,2.0,34.3766,11111222 
TABS,ioos:station:wmo:42049:1,2016-09-02T21:00:00Z,28.3507,-96.0058,2.0,34.4908,11111222 
TABS,ioos:station:wmo:42049:1,2016-09-02T21:30:00Z,28.3507,-96.0058,2.0,34.553,11111222 
TABS,ioos:station:wmo:42049:1,2016-09-02T22:00:00Z,28.3507,-96.0058,2.0,34.548,11111222 
TABS,ioos:station:wmo:42049:1,2016-09-02T22:30:00Z,28.3507,-96.0058,2.0,34.5479,11111222 
TABS,ioos:station:wmo:42049:1,2016-09-02T23:00:00Z,28.3507,-96.0058,2.0,34.5783,11111222 
TABS,ioos:station:wmo:42049:1,2016-09-02T23:30:00Z,28.3507,-96.0058,2.0,34.5635,11111222 
TABS,ioos:station:wmo:42049:1,2016-09-03T00:00:00Z,28.3507,-96.0058,2.0,34.5787,11111222 
TABS,ioos:station:wmo:42049:1,2016-09-03T00:30:00Z,28.3507,-96.0058,2.0,34.5854,11111222 
TABS,ioos:station:wmo:42049:1,2016-09-03T01:00:00Z,28.3507,-96.0058,2.0,34.5911,11111222 
TABS,ioos:station:wmo:42049:1,2016-09-03T01:30:00Z,28.3507,-96.0058,2.0,34.6078,11111222 
TABS,ioos:station:wmo:42049:1,2016-09-03T02:00:00Z,28.3507,-96.0058,2.0,34.6251,11111222 
TABS,ioos:station:wmo:42049:1,2016-09-03T02:30:00Z,28.3507,-96.0058,2.0,34.6373,11111222 
TABS,ioos:station:wmo:42049:1,2016-09-03T03:00:00Z,28.3507,-96.0058,2.0,34.6668,11111222 
TABS,ioos:station:wmo:42049:1,2016-09-03T03:30:00Z,28.3507,-96.0058,2.0,34.6896,11111222 
TABS,ioos:station:wmo:42049:1,2016-09-03T04:00:00Z,28.3507,-96.0058,2.0,34.7006,11111222 
TABS,ioos:station:wmo:42049:1,2016-09-03T04:30:00Z,28.3507,-96.0058,2.0,34.6951,11111222 
TABS,ioos:station:wmo:42049:1,2016-09-03T05:00:00Z,28.3507,-96.0058,2.0,34.6797,11111222 
TABS,ioos:station:wmo:42049:1,2016-09-03T05:30:00Z,28.3507,-96.0058,2.0,34.6742,11111222 
TABS,ioos:station:wmo:42049:1,2016-09-03T06:00:00Z,28.3507,-96.0058,2.0,34.6774,11111222 
TABS,ioos:station:wmo:42049:1,2016-09-03T06:30:00Z,28.3507,-96.0058,2.0,34.6746,11111222 
TABS,ioos:station:wmo:42049:1,2016-09-03T07:00:00Z,28.3507,-96.0058,2.0,34.6678,11111222 
TABS,ioos:station:wmo:42049:1,2016-09-03T07:30:00Z,28.3507,-96.0058,2.0,34.6509,11111222 
TABS,ioos:station:wmo:42049:1,2016-09-03T08:00:00Z,28.3507,-96.0058,2.0,34.6567,11111222 
TABS,ioos:station:wmo:42049:1,2016-09-03T08:30:00Z,28.3507,-96.0058,2.0,34.6509,11111222 
TABS,ioos:station:wmo:42049:1,2016-09-03T09:00:00Z,28.3507,-96.0058,2.0,34.6451,11111222 
TABS,ioos:station:wmo:42049:1,2016-09-03T09:30:00Z,28.3507,-96.0058,2.0,34.6433,11111222 
TABS,ioos:station:wmo:42049:1,2016-09-03T10:00:00Z,28.3507,-96.0058,2.0,34.6452,11111222 
TABS,ioos:station:wmo:42049:1,2016-09-03T10:30:00Z,28.3507,-96.0058,2.0,34.6403,11111222 
TABS,ioos:station:wmo:42049:1,2016-09-03T11:00:00Z,28.3507,-96.0058,2.0,34.6453,11111222 
TABS,ioos:station:wmo:42049:1,2016-09-03T11:30:00Z,28.3507,-96.0058,2.0,34.6477,11111222 
TABS,ioos:station:wmo:42049:1,2016-09-03T12:00:00Z,28.3507,-96.0058,2.0,34.6471,11111222 
TABS,ioos:station:wmo:42049:1,2016-09-03T18:30:00Z,28.3507,-96.0058,2.0,34.5566,11111222 
TABS,ioos:station:wmo:42049:1,2016-09-03T19:00:00Z,28.3507,-96.0058,2.0,34.5698,11111222 
TABS,ioos:station:wmo:42049:1,2016-09-03T19:30:00Z,28.3507,-96.0058,2.0,34.5783,11111222 
TABS,ioos:station:wmo:42049:1,2016-09-03T20:00:00Z,28.3507,-96.0058,2.0,34.5837,11111222 
TABS,ioos:station:wmo:42049:1,2016-09-03T20:30:00Z,28.3507,-96.0058,2.0,34.6008,11111222 
TABS,ioos:station:wmo:42049:1,2016-09-03T21:00:00Z,28.3507,-96.0058,2.0,34.6041,11111222 
TABS,ioos:station:wmo:42049:1,2016-09-03T21:30:00Z,28.3507,-96.0058,2.0,34.6164,11111222 
TABS,ioos:station:wmo:42049:1,2016-09-03T22:00:00Z,28.3507,-96.0058,2.0,34.6445,11111222 
TABS,ioos:station:wmo:42049:1,2016-09-03T22:30:00Z,28.3507,-96.0058,2.0,34.6735,11111222 
TABS,ioos:station:wmo:42049:1,2016-09-03T23:00:00Z,28.3507,-96.0058,2.0,34.6772,11111222 
TABS,ioos:station:wmo:42049:1,2016-09-03T23:30:00Z,28.3507,-96.0058,2.0,34.6648,11111222 
TABS,ioos:station:wmo:42049:1,2016-09-04T00:00:00Z,28.3507,-96.0058,2.0,34.618,11111222 
TABS,ioos:station:wmo:42049:1,2016-09-04T00:30:00Z,28.3507,-96.0058,2.0,34.5766,11111222 
TABS,ioos:station:wmo:42049:1,2016-09-04T01:00:00Z,28.3507,-96.0058,2.0,34.518,11111222 
TABS,ioos:station:wmo:42049:1,2016-09-04T01:30:00Z,28.3507,-96.0058,2.0,34.5025,11111222 
TABS,ioos:station:wmo:42049:1,2016-09-04T02:00:00Z,28.3507,-96.0058,2.0,34.4903,11111222 
TABS,ioos:station:wmo:42049:1,2016-09-04T02:30:00Z,28.3507,-96.0058,2.0,34.5136,11111222 
TABS,ioos:station:wmo:42049:1,2016-09-04T03:00:00Z,28.3507,-96.0058,2.0,34.4542,11111222 
TABS,ioos:station:wmo:42049:1,2016-09-04T03:30:00Z,28.3507,-96.0058,2.0,34.4487,11111222 
TABS,ioos:station:wmo:42049:1,2016-09-04T04:00:00Z,28.3507,-96.0058,2.0,34.4189,11111222 
TABS,ioos:station:wmo:42049:1,2016-09-04T04:30:00Z,28.3507,-96.0058,2.0,34.4098,11111222 
TABS,ioos:station:wmo:42049:1,2016-09-04T05:00:00Z,28.3507,-96.0058,2.0,34.414,11111222 
TABS,ioos:station:wmo:42049:1,2016-09-04T05:30:00Z,28.3507,-96.0058,2.0,34.412,11111222 
TABS,ioos:station:wmo:42049:1,2016-09-04T06:00:00Z,28.3507,-96.0058,2.0,34.4103,11111222 
TABS,ioos:station:wmo:42049:1,2016-09-04T06:30:00Z,28.3507,-96.0058,2.0,34.434,11111222 
TABS,ioos:station:wmo:42049:1,2016-09-04T07:00:00Z,28.3507,-96.0058,2.0,34.4555,11111222 
TABS,ioos:station:wmo:42049:1,2016-09-04T07:30:00Z,28.3507,-96.0058,2.0,34.4887,11111222 
TABS,ioos:station:wmo:42049:1,2016-09-04T08:00:00Z,28.3507,-96.0058,2.0,34.4938,11111222 
TABS,ioos:station:wmo:42049:1,2016-09-04T08:30:00Z,28.3507,-96.0058,2.0,34.496,11111222 
TABS,ioos:station:wmo:42049:1,2016-09-04T09:00:00Z,28.3507,-96.0058,2.0,34.5394,11111222 
TABS,ioos:station:wmo:42049:1,2016-09-04T09:30:00Z,28.3507,-96.0058,2.0,34.5813,11111222 
TABS,ioos:station:wmo:42049:1,2016-09-04T10:00:00Z,28.3507,-96.0058,2.0,34.5906,11111222 
TABS,ioos:station:wmo:42049:1,2016-09-04T10:30:00Z,28.3507,-96.0058,2.0,34.5943,11111222 
TABS,ioos:station:wmo:42049:1,2016-09-04T11:00:00Z,28.3507,-96.0058,2.0,34.5947,11111222 
TABS,ioos:station:wmo:42049:1,2016-09-04T11:30:00Z,28.3507,-96.0058,2.0,34.5957,11111222 
TABS,ioos:station:wmo:42049:1,2016-09-04T12:00:00Z,28.3507,-96.0058,2.0,34.5694,11111222 
TABS,ioos:station:wmo:42049:1,2016-09-04T12:30:00Z,28.3507,-96.0058,2.0,34.5681,11111222 
TABS,ioos:station:wmo:42049:1,2016-09-04T13:00:00Z,28.3507,-96.0058,2.0,34.5654,11111222 
TABS,ioos:station:wmo:42049:1,2016-09-04T13:30:00Z,28.3507,-96.0058,2.0,34.4978,11111222 
TABS,ioos:station:wmo:42049:1,2016-09-04T14:00:00Z,28.3507,-96.0058,2.0,34.4863,11111222 
TABS,ioos:station:wmo:42049:1,2016-09-04T14:30:00Z,28.3507,-96.0058,2.0,34.4459,11111222 
TABS,ioos:station:wmo:42049:1,2016-09-04T15:00:00Z,28.3507,-96.0058,2.0,34.3876,11111222 
TABS,ioos:station:wmo:42049:1,2016-09-04T15:30:00Z,28.3507,-96.0058,2.0,34.3815,11111222 
TABS,ioos:station:wmo:42049:1,2016-09-04T16:00:00Z,28.3507,-96.0058,2.0,34.3659,11111222 
TABS,ioos:station:wmo:42049:1,2016-09-04T16:30:00Z,28.3507,-96.0058,2.0,34.3662,11111222 
TABS,ioos:station:wmo:42049:1,2016-09-04T17:00:00Z,28.3507,-96.0058,2.0,34.3675,11111222 
TABS,ioos:station:wmo:42049:1,2016-09-04T17:30:00Z,28.3507,-96.0058,2.0,34.3347,11111222 
TABS,ioos:station:wmo:42049:1,2016-09-04T18:00:00Z,28.3507,-96.0058,2.0,34.3038,11111222 
TABS,ioos:station:wmo:42049:1,2016-09-04T18:30:00Z,28.3507,-96.0058,2.0,34.2703,11111222 
TABS,ioos:station:wmo:42049:1,2016-09-04T19:00:00Z,28.3507,-96.0058,2.0,34.2054,11111222 
TABS,ioos:station:wmo:42049:1,2016-09-04T19:30:00Z,28.3507,-96.0058,2.0,34.2172,11111222 
TABS,ioos:station:wmo:42049:1,2016-09-04T20:00:00Z,28.3507,-96.0058,2.0,34.2186,11111222 
TABS,ioos:station:wmo:42049:1,2016-09-04T20:30:00Z,28.3507,-96.0058,2.0,34.2145,11111222 
TABS,ioos:station:wmo:42049:1,2016-09-04T21:00:00Z,28.3507,-96.0058,2.0,34.1256,11111222 
TABS,ioos:station:wmo:42049:1,2016-09-04T21:30:00Z,28.3507,-96.0058,2.0,34.0993,11111222 
TABS,ioos:station:wmo:42049:1,2016-09-04T22:00:00Z,28.3507,-96.0058,2.0,34.1102,11111222 
TABS,ioos:station:wmo:42049:1,2016-09-04T22:30:00Z,28.3507,-96.0058,2.0,34.1577,11111222 
TABS,ioos:station:wmo:42049:1,2016-09-04T23:00:00Z,28.3507,-96.0058,2.0,34.1476,11111222 
TABS,ioos:station:wmo:42049:1,2016-09-04T23:30:00Z,28.3507,-96.0058,2.0,34.1154,11111222 
TABS,ioos:station:wmo:42049:1,2016-09-05T00:00:00Z,28.3507,-96.0058,2.0,34.111,11111222 
TABS,ioos:station:wmo:42049:1,2016-09-05T00:30:00Z,28.3507,-96.0058,2.0,34.1191,11111222 
TABS,ioos:station:wmo:42049:1,2016-09-05T01:00:00Z,28.3507,-96.0058,2.0,34.1125,11111222 
TABS,ioos:station:wmo:42049:1,2016-09-05T01:30:00Z,28.3507,-96.0058,2.0,34.1061,11111222 
TABS,ioos:station:wmo:42049:1,2016-09-05T02:00:00Z,28.3507,-96.0058,2.0,34.0856,11111222 
TABS,ioos:station:wmo:42049:1,2016-09-05T02:30:00Z,28.3507,-96.0058,2.0,34.0727,11111222 
TABS,ioos:station:wmo:42049:1,2016-09-05T03:00:00Z,28.3507,-96.0058,2.0,34.0697,11111222 
TABS,ioos:station:wmo:42049:1,2016-09-05T03:30:00Z,28.3507,-96.0058,2.0,34.0615,11111222 
TABS,ioos:station:wmo:42049:1,2016-09-05T04:00:00Z,28.3507,-96.0058,2.0,34.0495,11111222 
TABS,ioos:station:wmo:42049:1,2016-09-05T04:30:00Z,28.3507,-96.0058,2.0,34.0285,11111222 
TABS,ioos:station:wmo:42049:1,2016-09-05T05:00:00Z,28.3507,-96.0058,2.0,34.0218,11111222 
TABS,ioos:station:wmo:42049:1,2016-09-05T05:30:00Z,28.3507,-96.0058,2.0,34.0158,11111222 
TABS,ioos:station:wmo:42049:1,2016-09-05T06:00:00Z,28.3507,-96.0058,2.0,34.0172,11111222 
TABS,ioos:station:wmo:42049:1,2016-09-05T06:30:00Z,28.3507,-96.0058,2.0,34.0209,11111222 
TABS,ioos:station:wmo:42049:1,2016-09-05T07:00:00Z,28.3507,-96.0058,2.0,34.032,11111222 
TABS,ioos:station:wmo:42049:1,2016-09-05T07:30:00Z,28.3507,-96.0058,2.0,34.0418,11111222 
TABS,ioos:station:wmo:42049:1,2016-09-05T08:00:00Z,28.3507,-96.0058,2.0,34.0465,11111222 
TABS,ioos:station:wmo:42049:1,2016-09-05T08:30:00Z,28.3507,-96.0058,2.0,34.053,11111222 
TABS,ioos:station:wmo:42049:1,2016-09-05T09:00:00Z,28.3507,-96.0058,2.0,34.052,11111222 
TABS,ioos:station:wmo:42049:1,2016-09-05T09:30:00Z,28.3507,-96.0058,2.0,34.0535,11111222 
TABS,ioos:station:wmo:42049:1,2016-09-05T10:00:00Z,28.3507,-96.0058,2.0,34.0517,11111222 
TABS,ioos:station:wmo:42049:1,2016-09-05T10:30:00Z,28.3507,-96.0058,2.0,34.052,11111222 
TABS,ioos:station:wmo:42049:1,2016-09-05T11:00:00Z,28.3507,-96.0058,2.0,33.8884,11111222 
TABS,ioos:station:wmo:42049:1,2016-09-05T11:30:00Z,28.3507,-96.0058,2.0,33.982,11111222 
TABS,ioos:station:wmo:42049:1,2016-09-05T12:00:00Z,28.3507,-96.0058,2.0,33.9638,11111222 
TABS,ioos:station:wmo:42049:1,2016-09-05T12:30:00Z,28.3507,-96.0058,2.0,33.9915,11111222 
TABS,ioos:station:wmo:42049:1,2016-09-05T13:00:00Z,28.3507,-96.0058,2.0,34.0148,11111222 
TABS,ioos:station:wmo:42049:1,2016-09-05T13:30:00Z,28.3507,-96.0058,2.0,34.0233,11111222 
TABS,ioos:station:wmo:42049:1,2016-09-05T14:00:00Z,28.3507,-96.0058,2.0,34.0194,11111222 
TABS,ioos:station:wmo:42049:1,2016-09-05T14:30:00Z,28.3507,-96.0058,2.0,34.0171,11111222 
TABS,ioos:station:wmo:42049:1,2016-09-05T15:00:00Z,28.3507,-96.0058,2.0,34.0167,11111222 
TABS,ioos:station:wmo:42049:1,2016-09-05T15:30:00Z,28.3507,-96.0058,2.0,34.0233,11111222 
TABS,ioos:station:wmo:42049:1,2016-09-05T16:00:00Z,28.3507,-96.0058,2.0,34.0272,11111222 
TABS,ioos:station:wmo:42049:1,2016-09-05T16:30:00Z,28.3507,-96.0058,2.0,34.0264,11111222 
TABS,ioos:station:wmo:42049:1,2016-09-05T17:00:00Z,28.3507,-96.0058,2.0,34.0265,11111222 
TABS,ioos:station:wmo:42049:1,2016-09-05T17:30:00Z,28.3507,-96.0058,2.0,34.0282,11111222 
TABS,ioos:station:wmo:42049:1,2016-09-05T18:00:00Z,28.3507,-96.0058,2.0,34.036,11111222 
TABS,ioos:station:wmo:42049:1,2016-09-05T18:30:00Z,28.3507,-96.0058,2.0,34.0389,11111222 
TABS,ioos:station:wmo:42049:1,2016-09-05T19:00:00Z,28.3507,-96.0058,2.0,34.0515,11111222 
TABS,ioos:station:wmo:42049:1,2016-09-05T19:30:00Z,28.3507,-96.0058,2.0,34.0588,11111222 
TABS,ioos:station:wmo:42049:1,2016-09-05T20:00:00Z,28.3507,-96.0058,2.0,34.0601,11111222 
TABS,ioos:station:wmo:42049:1,2016-09-05T20:30:00Z,28.3507,-96.0058,2.0,34.1,11111222 
TABS,ioos:station:wmo:42049:1,2016-09-05T21:00:00Z,28.3507,-96.0058,2.0,34.1486,11111222 
TABS,ioos:station:wmo:42049:1,2016-09-05T21:30:00Z,28.3507,-96.0058,2.0,34.1756,11111222 
TABS,ioos:station:wmo:42049:1,2016-09-05T22:00:00Z,28.3507,-96.0058,2.0,34.2169,11111222 
TABS,ioos:station:wmo:42049:1,2016-09-05T22:30:00Z,28.3507,-96.0058,2.0,34.2337,11111222 
TABS,ioos:station:wmo:42049:1,2016-09-05T23:00:00Z,28.3507,-96.0058,2.0,34.2373,11111222 
TABS,ioos:station:wmo:42049:1,2016-09-05T23:30:00Z,28.3507,-96.0058,2.0,34.2348,11111222 
TABS,ioos:station:wmo:42049:1,2016-09-06T00:00:00Z,28.3507,-96.0058,2.0,34.2376,11111222 
TABS,ioos:station:wmo:42049:1,2016-09-06T00:30:00Z,28.3507,-96.0058,2.0,34.2308,11111222 
TABS,ioos:station:wmo:42049:1,2016-09-06T01:00:00Z,28.3507,-96.0058,2.0,34.2464,11111222 
TABS,ioos:station:wmo:42049:1,2016-09-06T01:30:00Z,28.3507,-96.0058,2.0,34.2542,11111222 
TABS,ioos:station:wmo:42049:1,2016-09-06T02:00:00Z,28.3507,-96.0058,2.0,34.276,11111222 
TABS,ioos:station:wmo:42049:1,2016-09-06T02:30:00Z,28.3507,-96.0058,2.0,34.2763,11111222 
TABS,ioos:station:wmo:42049:1,2016-09-06T03:00:00Z,28.3507,-96.0058,2.0,34.267,11111222 
TABS,ioos:station:wmo:42049:1,2016-09-06T03:30:00Z,28.3507,-96.0058,2.0,34.2605,11111222 
TABS,ioos:station:wmo:42049:1,2016-09-06T04:00:00Z,28.3507,-96.0058,2.0,34.2549,11111222 
TABS,ioos:station:wmo:42049:1,2016-09-06T04:30:00Z,28.3507,-96.0058,2.0,34.2605,11111222 
TABS,ioos:station:wmo:42049:1,2016-09-06T05:00:00Z,28.3507,-96.0058,2.0,34.2692,11111222 
TABS,ioos:station:wmo:42049:1,2016-09-06T05:30:00Z,28.3507,-96.0058,2.0,34.3163,11111222 
TABS,ioos:station:wmo:42049:1,2016-09-06T06:00:00Z,28.3507,-96.0058,2.0,34.3347,11111222 
TABS,ioos:station:wmo:42049:1,2016-09-06T06:30:00Z,28.3507,-96.0058,2.0,34.3411,11111222 
TABS,ioos:station:wmo:42049:1,2016-09-06T07:00:00Z,28.3507,-96.0058,2.0,34.3746,11111222 
TABS,ioos:station:wmo:42049:1,2016-09-06T07:30:00Z,28.3507,-96.0058,2.0,34.406,11111222 
TABS,ioos:station:wmo:42049:1,2016-09-06T08:00:00Z,28.3507,-96.0058,2.0,34.4261,11111222 
TABS,ioos:station:wmo:42049:1,2016-09-06T08:30:00Z,28.3507,-96.0058,2.0,34.4364,11111222 
TABS,ioos:station:wmo:42049:1,2016-09-06T09:00:00Z,28.3507,-96.0058,2.0,34.4051,11111222 
TABS,ioos:station:wmo:42049:1,2016-09-06T09:30:00Z,28.3507,-96.0058,2.0,34.4134,11111222 
TABS,ioos:station:wmo:42049:1,2016-09-06T10:00:00Z,28.3507,-96.0058,2.0,34.414,11111222 
TABS,ioos:station:wmo:42049:1,2016-09-06T10:30:00Z,28.3507,-96.0058,2.0,34.4121,11111222 
TABS,ioos:station:wmo:42049:1,2016-09-06T11:00:00Z,28.3507,-96.0058,2.0,34.4076,11111222 
TABS,ioos:station:wmo:42049:1,2016-09-06T11:30:00Z,28.3507,-96.0058,2.0,34.4201,11111222 
TABS,ioos:station:wmo:42049:1,2016-09-06T12:00:00Z,28.3507,-96.0058,2.0,34.4175,11111222 
TABS,ioos:station:wmo:42049:1,2016-09-06T12:30:00Z,28.3507,-96.0058,2.0,34.4165,11111222 
TABS,ioos:station:wmo:42049:1,2016-09-06T13:00:00Z,28.3507,-96.0058,2.0,34.4162,11111222 
TABS,ioos:station:wmo:42049:1,2016-09-06T13:30:00Z,28.3507,-96.0058,2.0,34.4013,11111222 
TABS,ioos:station:wmo:42049:1,2016-09-06T14:00:00Z,28.3507,-96.0058,2.0,34.3853,11111222 
TABS,ioos:station:wmo:42049:1,2016-09-06T14:30:00Z,28.3507,-96.0058,2.0,34.3693,11111222 
TABS,ioos:station:wmo:42049:1,2016-09-06T15:00:00Z,28.3507,-96.0058,2.0,34.3508,11111222 
TABS,ioos:station:wmo:42049:1,2016-09-06T15:30:00Z,28.3507,-96.0058,2.0,34.3355,11111222 
TABS,ioos:station:wmo:42049:1,2016-09-06T16:00:00Z,28.3507,-96.0058,2.0,34.302,11111222 
TABS,ioos:station:wmo:42049:1,2016-09-06T16:30:00Z,28.3507,-96.0058,2.0,34.286,11111222 
TABS,ioos:station:wmo:42049:1,2016-09-06T17:00:00Z,28.3507,-96.0058,2.0,34.259,11111222 
TABS,ioos:station:wmo:42049:1,2016-09-06T17:30:00Z,28.3507,-96.0058,2.0,34.2439,11111222 
TABS,ioos:station:wmo:42049:1,2016-09-06T18:00:00Z,28.3507,-96.0058,2.0,34.2466,11111222 
TABS,ioos:station:wmo:42049:1,2016-09-06T18:30:00Z,28.3507,-96.0058,2.0,34.2271,11111222 
TABS,ioos:station:wmo:42049:1,2016-09-06T19:00:00Z,28.3507,-96.0058,2.0,34.2256,11111222 
TABS,ioos:station:wmo:42049:1,2016-09-06T19:30:00Z,28.3507,-96.0058,2.0,34.2084,11111222 